VIR28K EGPH-EGCC

Flight info

Callsign VIR28K
Flight time 0h 36m
Altitude 25000
Route GOSAM P600 FENIK L612 LAKEY
Aircraft A35K/H-SDE2E3GHIJ3J4J5LM1ORWXY/LB1D1

Departure

Time 2026-05-04 15:52
Airport Edinburgh Airport (EGPH)

Arrival

Time 2026-05-04 16:28
Airport Manchester Airport (EGCC)
Time Latitude Longitude Altitude Speed Heading
2026-05-04 15:23 55.95025 -3.36050 109 ft 0 kts 249°
2026-05-04 15:44 55.95025 -3.36049 113 ft 1 kts 249°
2026-05-04 15:44 55.95034 -3.36008 110 ft 4 kts 249°
2026-05-04 15:44 55.95044 -3.35963 108 ft 4 kts 248°
2026-05-04 15:45 55.95054 -3.35918 109 ft 4 kts 248°
2026-05-04 15:45 55.95062 -3.35880 108 ft 5 kts 259°
2026-05-04 15:45 55.95060 -3.35843 108 ft 5 kts 326°
2026-05-04 15:45 55.95035 -3.35825 108 ft 5 kts 340°
2026-05-04 15:46 55.95023 -3.35816 107 ft 4 kts 328°
2026-05-04 15:48 55.95025 -3.35818 108 ft 2 kts 328°
2026-05-04 15:48 55.95040 -3.35832 108 ft 0 kts 335°
2026-05-04 15:49 55.95044 -3.35831 108 ft 1 kts 355°
2026-05-04 15:49 55.95062 -3.35827 108 ft 5 kts
2026-05-04 15:49 55.95108 -3.35863 109 ft 10 kts 322°
2026-05-04 15:49 55.95187 -3.35962 108 ft 17 kts 336°
2026-05-04 15:50 55.95275 -3.35862 108 ft 18 kts 52°
2026-05-04 15:50 55.95336 -3.35682 108 ft 14 kts 59°
2026-05-04 15:50 55.95396 -3.35505 111 ft 16 kts 58°
2026-05-04 15:50 55.95472 -3.35426 109 ft 1 kts 345°
2026-05-04 15:51 55.95473 -3.35427 109 ft 2 kts 345°
2026-05-04 15:51 55.95517 -3.35464 107 ft 12 kts 330°
2026-05-04 15:51 55.95551 -3.35599 108 ft 14 kts 253°
2026-05-04 15:51 55.95444 -3.35944 105 ft 69 kts 239°
2026-05-04 15:52 55.95051 -3.37105 111 ft 146 kts 239°
2026-05-04 15:52 55.94444 -3.38824 661 ft 174 kts 238°
2026-05-04 15:52 55.93748 -3.40706 1546 ft 188 kts 241°
2026-05-04 15:52 55.93050 -3.42750 2214 ft 195 kts 242°
2026-05-04 15:53 55.92350 -3.44834 2729 ft 196 kts 243°
2026-05-04 15:53 55.91638 -3.46933 3286 ft 203 kts 242°
2026-05-04 15:53 55.90871 -3.49220 3860 ft 226 kts 243°
2026-05-04 15:53 55.90308 -3.51942 4466 ft 242 kts 259°
2026-05-04 15:54 55.89998 -3.54926 5085 ft 247 kts 262°
2026-05-04 15:54 55.89719 -3.57967 5689 ft 250 kts 262°
2026-05-04 15:54 55.89429 -3.61037 6313 ft 250 kts 261°
2026-05-04 15:54 55.89234 -3.63065 6711 ft 251 kts 261°
2026-05-04 15:55 55.88934 -3.66150 7306 ft 255 kts 261°
2026-05-04 15:55 55.88627 -3.69285 7917 ft 258 kts 261°
2026-05-04 15:55 55.88208 -3.73490 8729 ft 262 kts 261°
2026-05-04 15:55 55.87886 -3.76702 9357 ft 264 kts 261°
2026-05-04 15:56 55.87564 -3.79933 9990 ft 266 kts 261°
2026-05-04 15:56 55.87342 -3.82157 10387 ft 276 kts 261°
2026-05-04 15:56 55.86990 -3.85655 10968 ft 298 kts 261°
2026-05-04 15:56 55.86611 -3.89417 11556 ft 319 kts 261°
2026-05-04 15:57 55.86206 -3.93428 12151 ft 337 kts 261°
2026-05-04 15:57 55.85784 -3.97582 12758 ft 344 kts 261°
2026-05-04 15:57 55.85355 -4.01796 13391 ft 348 kts 261°
2026-05-04 15:57 55.84807 -4.05949 14007 ft 352 kts 253°
2026-05-04 15:58 55.83735 -4.09891 14585 ft 358 kts 238°
2026-05-04 15:58 55.82142 -4.13335 15161 ft 364 kts 227°
2026-05-04 15:58 55.80093 -4.16045 15764 ft 373 kts 211°
2026-05-04 15:58 55.77621 -4.17582 16377 ft 383 kts 193°
2026-05-04 15:59 55.74928 -4.17677 16994 ft 394 kts 175°
2026-05-04 15:59 55.72290 -4.16205 17627 ft 404 kts 155°
2026-05-04 15:59 55.69932 -4.13407 18264 ft 411 kts 146°
2026-05-04 15:59 55.67463 -4.10815 18855 ft 414 kts 155°
2026-05-04 16:00 55.64857 -4.08595 19398 ft 417 kts 157°
2026-05-04 16:00 55.62210 -4.06429 19990 ft 420 kts 158°
2026-05-04 16:00 55.59545 -4.04264 20594 ft 423 kts 158°
2026-05-04 16:00 55.56865 -4.02091 21196 ft 425 kts 158°
2026-05-04 16:01 55.54163 -3.99901 21817 ft 428 kts 158°
2026-05-04 16:01 55.51480 -3.97731 22441 ft 431 kts 158°
2026-05-04 16:01 55.48736 -3.95514 23094 ft 434 kts 158°
2026-05-04 16:01 55.45981 -3.93292 23712 ft 438 kts 158°
2026-05-04 16:02 55.43204 -3.91057 24273 ft 440 kts 157°
2026-05-04 16:02 55.40402 -3.88802 24764 ft 444 kts 157°
2026-05-04 16:02 55.34652 -3.84192 25002 ft 472 kts 156°
2026-05-04 16:03 55.31631 -3.81775 25000 ft 479 kts 156°
2026-05-04 16:03 55.28598 -3.79349 25005 ft 479 kts 157°
2026-05-04 16:03 55.25557 -3.76922 25007 ft 479 kts 157°
2026-05-04 16:03 55.22522 -3.74505 25006 ft 479 kts 157°
2026-05-04 16:04 55.19488 -3.72093 24996 ft 479 kts 156°
2026-05-04 16:04 55.13414 -3.67277 24998 ft 479 kts 156°
2026-05-04 16:04 55.10382 -3.64878 24999 ft 478 kts 156°
2026-05-04 16:05 55.07350 -3.62484 24999 ft 479 kts 156°
2026-05-04 16:05 55.04316 -3.60092 24999 ft 478 kts 156°
2026-05-04 16:05 54.98299 -3.55379 25003 ft 477 kts 156°
2026-05-04 16:06 54.95268 -3.53003 24994 ft 478 kts 156°
2026-05-04 16:06 54.87121 -3.46632 25004 ft 482 kts 156°
2026-05-04 16:07 54.83066 -3.43471 25003 ft 482 kts 156°
2026-05-04 16:07 54.73914 -3.36363 25008 ft 479 kts 156°
2026-05-04 16:08 54.70870 -3.34007 25007 ft 480 kts 156°
2026-05-04 16:08 54.61732 -3.26957 25011 ft 479 kts 155°
2026-05-04 16:09 54.55622 -3.22263 25015 ft 481 kts 155°
2026-05-04 16:09 54.49554 -3.17616 25006 ft 479 kts 155°
2026-05-04 16:10 54.43463 -3.12967 25009 ft 478 kts 155°
2026-05-04 16:11 54.34349 -3.06038 25016 ft 477 kts 155°
2026-05-04 16:11 54.31311 -3.03736 24996 ft 477 kts 155°
2026-05-04 16:12 54.22367 -2.96445 23320 ft 469 kts 147°
2026-05-04 16:12 54.14357 -2.87439 20797 ft 450 kts 146°
2026-05-04 16:13 54.09248 -2.81701 19137 ft 434 kts 146°
2026-05-04 16:13 54.04245 -2.76109 17727 ft 426 kts 147°
2026-05-04 16:14 53.99318 -2.70623 16266 ft 422 kts 148°
2026-05-04 16:14 53.94465 -2.65243 15152 ft 407 kts 147°
2026-05-04 16:15 53.87482 -2.57516 14357 ft 388 kts 148°
2026-05-04 16:16 53.83099 -2.52676 12718 ft 364 kts 148°
2026-05-04 16:16 53.76999 -2.45975 10191 ft 333 kts 148°
2026-05-04 16:17 53.73259 -2.41879 8576 ft 311 kts 148°
2026-05-04 16:18 53.68166 -2.36315 7685 ft 282 kts 147°
2026-05-04 16:18 53.66517 -2.34517 7480 ft 281 kts 148°
2026-05-04 16:19 53.63135 -2.26760 6431 ft 279 kts 115°
2026-05-04 16:19 53.61512 -2.20884 5593 ft 273 kts 115°
2026-05-04 16:20 53.59164 -2.12489 4999 ft 236 kts 115°
2026-05-04 16:20 53.57898 -2.08000 5024 ft 196 kts 115°
2026-05-04 16:21 53.56163 -2.01799 4992 ft 195 kts 115°
2026-05-04 16:22 53.54750 -1.97950 4979 ft 197 kts 145°
2026-05-04 16:22 53.50860 -1.97781 4318 ft 191 kts 190°
2026-05-04 16:23 53.48035 -2.01379 3998 ft 167 kts 232°
2026-05-04 16:24 53.45129 -2.07381 3135 ft 165 kts 232°
2026-05-04 16:25 53.43686 -2.10365 2681 ft 165 kts 232°
2026-05-04 16:26 53.40821 -2.16282 1779 ft 159 kts 231°
2026-05-04 16:26 53.38868 -2.20310 1173 ft 142 kts 231°
2026-05-04 16:27 53.37636 -2.22847 771 ft 139 kts 231°
2026-05-04 16:28 53.35833 -2.26534 278 ft 128 kts 231°
2026-05-04 16:28 53.34993 -2.28316 237 ft 33 kts 243°
2026-05-04 16:29 53.35058 -2.28654 238 ft 10 kts 48°
2026-05-04 16:30 53.35269 -2.28234 238 ft 18 kts 49°
2026-05-04 16:31 53.35454 -2.27943 244 ft 18 kts 26°
2026-05-04 16:31 53.35804 -2.27865 256 ft 13 kts
2026-05-04 16:32 53.36083 -2.27893 261 ft 16 kts 340°
2026-05-04 16:33 53.36279 -2.28174 261 ft 18 kts 315°
2026-05-04 16:33 53.36415 -2.28455 261 ft 17 kts 301°
2026-05-04 16:34 53.36582 -2.28754 261 ft 12 kts 324°
2026-05-04 16:34 53.36644 -2.28769 261 ft 8 kts 356°
2026-05-04 16:35 53.36710 -2.28837 261 ft 1 kts 317°